SCP
0 0 0 0 0 0 0 0 0 0 0 0 0 0 0 0 0 0 -0 -0 -0 -0 -0 -0 -0 -0 -0 -0 -0 -0 -0 0 0 0 0 0 0 0 0 0 0 0 0 0 0 0 0 0 0
0 0 0 0 0 0 0 0 0 0 0 0 0 0 0 0 0 -0 -0 -0 -0 -0 0 0 -0 -0 -0 -0 -0 -0 -0 0 0 0 0 0 0 0 0 0 0 0 0 0 0 0 0 0 0
0 0 0 0 0 0 0 0 0 0 0 0 0 0 0 0 0 -0 0 -0 -0 -0 0 0 -0 -0 -0 -0 -0 -0 0 0 0 0 0 0 0 0 0 0 0 0 0 0 0 0 0 0 0
0 0 0 0 0 0 0 0 0 0 0 0 0 0 0 0 0 -0 0 -0 -0 -0 0 -0 -0 -0 -0 0 -0 -0 0 0 0 0 0 0 0 0 0 0 0 0 0 0 0 0 0 0 0
0 0 0 0 0 0 0 0 0 0 0 0 0 0 0 0 -0 -0 -0 -0 -0 0 0 0 -0 -0 0 0 -0 0 0 0 0 0 0 0 -0 0 0 0 0 0 0 0 0 0 0 0 0
0 0 0 0 0 0 0 0 0 0 0 0 0 0 0 0 -0 -0 -0 -0 -0 0 0 0 -0 0 0 0 -0 0 0 0 0 0 0 0 0 0 0 0 0 0 0 0 0 0 0 0 0
0 0 0 0 0 0 0 0 0 0 0 0 0 0 0 0 -0 -0 -0 -0 -0 0 -0 0 0 0 0 0 0 0 0 0 0 0 0 0 0 0 0 0 0 0 0 0 0 0 0 0 0
0 0 0 0 0 0 0 0 0 0 0 0 0 0 0 0 -0 0 0 -0 0 0 -0 0 0 0 0 0 0 0 0 0 0 0 0 0 0 0 0 0 0 0 0 0 0 0 0 0 0
0 0 0 0 0 0 0 0 0 0 0 0 0 0 0 -0 -0 0 0 0 0 -0 0 0 0 0 0 0 0 0 0 0 0 0 0 0 0 0 0 0 0 0 0 0 0 0 0 0 0
0 0 0 0 0 0 0 0 0 0 0 0 0 0 -0 0 0 0 0 0 0 0 0 0 0 0 0 0 0 0 0 0 0 0 0 0 0 0 0 0 0 0 0 0 0 0 0 0 0
0 0 0 0 0 0 0 0 0 0 0 0 0 0 0 0 0 0 0 0 0 0 0 0 0 0 0 0 0 0 0 0 0 0 0 0 0 0 0 0 0 0 0 0 0 0 0 0 0
0 0 0 0 0 0 0 0 0 0 0 0 0 0 0 0 0 0 0 0 0 0 0 0 0 0 0 0 0 0 0 0 0 0 0 0 0 0 0 0 0 0 0 0 0 0 0 0 0
0 0 0 0 0 0 0 0 0 0 0 0 0 0 0 0 0 0 0 0 0 0 0 0 0 0 0 0 0 0 0 0 0 0 0 0 0 0 0 0 0 0 0 0 0 0 0 0 0
0 0 0 0 0 0 0 0 0 0 0 0 0 0 0 0 0 0 0 0 0 0 0 0 0 0 0 0 0 0 0 0 0 0 0 0 0 0 0 0 0 0 0 0 0 0 0 0 0
0 0 0 0 0 0 0 0 0 0 0 0 0 0 0 0 0 0 0 0 0 0 0 0 0 0 0 0 0 0 0 0 0 0 0 0 0 0 0 0 0 0 0 0 0 0 0 0 0
0 0 0 0 0 0 0 0 0 0 0 0 0 0 0 0 0 0 0 0 0 0 0 0 0 0 0 0 0 0 0 0 0 0 0 0 0 0 0 0 0 0 0 0 0 0 0 0 0
0 0 0 0 0 0 0 0 0 0 0 0 0 0 0 0 0 0 0 0 0 0 0 0 0 0 0 0 0 0 0 0 0 0 0 0 0 0 0 0 0 0 0 0 0 0 0 0 0
0 0 0 0 0 0 0 0 0 0 0 0 0 0 0 0 0 0 0 0 0 0 0 0 0 0 0 0 0 0 0 0 0 0 0 0 0 0 0 0 0 0 0 0 0 0 0 0 0
0 0 0 0 0 0 0 0 0 0 0 0 0 0 0 0 0 0 0 0 0 0 0 0 0 0 0 0 0 0 0 0 0 0 0 0 0 0 0 0 0 0 0 0 0 0 0 0 0
0 0 0 0 0 0 0 0 0 0 0 0 0 0 0 0 0 0 0 0 0 0 0 0 0 0 0 0 0 0 0 0 0 0 0 0 0 0 0 0 0 0 0 0 0 0 0 0 0
0 0 0 0 0 0 0 0 0 0 0 0 0 0 0 0 0 0 0 0 0 0 0 0 0 0 0 0 0 0 0 0 0 0 0 0 0 0 0 0 0 0 0 0 0 0 0 0 0
0 0 0 0 0 0 0 0 0 0 0 0 0 0 0 0 0 0 0 0 0 0 0 0 0 0 0 0 0 0 0 0 0 0 0 0 0 0 0 0 0 0 0 0 0 0 0 0 0
0 0 0 0 0 0 0 0 0 0 0 0 0 0 0 0 0 0 0 0 0 0 0 0 0 0 0 0 0 0 0 0 0 0 0 0 0 0 0 0 0 0 0 0 0 0 0 0 0
0 0 0 0 0 0 0 0 0 0 0 0 0 0 0 0 0 0 0 0 0 0 0 0 0 0 0 0 0 0 0 0 0 0 0 0 0 0 0 0 0 0 0 0 0 0 0 0 0
0 0 0 0 0 0 0 0 0 0 0 0 0 0 0 0 0 0 0 0 0 0 0 0 0 0 0 0 0 0 0 0 0 0 0 0 0 0 0 0 0 0 0 0 0 0 0 0 0
0 0 0 0 0 0 0 0 0 0 0 0 0 0 0 0 0 0 0 0 0 0 0 0 0 0 0 0 0 0 0 0 0 0 0 0 0 0 0 0 0 0 0 0 0 0 0 0 0
0 0 0 0 0 0 0 0 0 0 0 0 0 0 0 0 0 0 0 0 0 0 0 0 0 0 0 0 0 0 0 0 0 0 0 0 0 0 0 0 0 0 0 0 0 0 0 0 0
0 0 0 0 0 0 0 0 0 0 0 0 0 0 0 0 0 0 0 0 0 0 0 0 0 0 0 0 0 0 0 0 0 0 0 0 0 0 0 0 0 0 0 0 0 0 0 0 0
0 0 0 0 0 0 0 0 0 0 0 0 0 0 0 0 0 0 0 0 0 0 0 0 0 0 0 0 0 0 0 0 0 0 0 0 0 0 0 0 0 0 0 0 0 0 0 0 0
0 0 0 0 0 0 0 0 0 0 0 0 0 0 0 0 0 0 0 0 0 0 0 0 0 0 0 0 0 0 0 0 0 0 0 0 0 0 0 0 0 0 0 0 0 0 0 0 0
Wind_Speed_500mb
7 6 3 2 6 8 7 11 5 7 7 7 14 16 18 11 6 8 35 21 18 18 23 26 25 21 15 12 12 9 8 7 10 12 14 15 18 21 25 28 31 33 35 36 38 39 42 43 42
7 6 3 4 5 2 9 8 8 5 6 11 12 14 11 7 15 21 25 24 15 14 28 27 25 19 16 16 12 6 8 9 12 14 17 19 22 26 29 31 32 34 35 37 40 42 44 45 45
6 5 3 6 5 8 6 7 10 8 15 7 5 13 9 6 16 14 20 30 23 18 24 24 24 22 17 11 6 5 8 11 14 17 20 24 27 29 32 34 36 37 39 41 43 44 45 48 50
7 5 7 5 12 12 7 5 8 7 6 6 7 13 16 9 7 9 37 30 23 16 19 27 24 20 9 7 8 7 9 12 15 18 24 27 30 33 36 39 42 44 45 46 47 46 47 49 51
6 4 1 4 9 10 4 12 11 4 11 6 3 7 11 11 10 18 37 30 25 21 21 24 23 15 8 9 8 9 10 13 17 21 24 27 30 34 38 42 45 46 46 44 44 44 45 47 49
3 4 3 7 12 6 5 18 6 4 4 12 3 6 7 12 8 21 27 24 21 17 21 26 20 13 10 9 8 9 11 14 18 22 24 27 31 36 40 44 44 42 41 42 41 38 38 40 41
5 4 7 2 8 8 5 13 8 3 6 4 4 8 12 15 9 18 25 17 18 17 14 18 17 12 11 9 9 10 13 17 20 23 25 29 34 38 41 41 39 41 38 30 29 29 29 29 29
4 4 6 7 3 4 5 6 5 3 2 4 2 6 9 21 18 19 23 17 19 18 11 12 11 13 13 10 11 11 14 19 22 23 28 32 36 40 40 39 39 35 26 23 22 22 22 28 29
2 5 6 7 7 4 13 6 3 3 2 4 4 3 9 22 20 21 21 22 18 18 18 14 12 14 13 9 11 11 15 19 23 24 28 33 38 37 34 35 33 27 19 22 25 29 30 30 30
5 3 7 7 11 7 5 14 6 4 2 4 6 9 11 15 13 15 20 20 23 22 21 19 14 16 12 10 12 11 14 19 23 26 30 35 36 34 33 31 32 19 19 22 25 25 32 27 30
12 9 4 8 15 16 8 11 7 2 2 3 5 16 16 12 10 17 12 14 13 14 19 23 20 19 14 14 12 13 15 20 24 29 34 37 34 33 29 26 24 19 19 18 26 31 32 30 31
6 11 21 11 8 10 7 15 11 7 10 13 9 5 11 8 9 9 11 14 17 21 15 20 23 20 17 15 14 13 16 21 25 32 36 35 34 30 25 24 20 17 15 20 27 24 27 28 26
13 20 21 8 6 6 7 11 11 29 29 24 16 9 7 9 9 12 8 4 17 26 24 22 20 21 20 14 15 14 17 20 26 31 34 33 30 27 23 19 15 13 16 14 23 23 27 26 26
14 34 40 16 7 1 2 3 9 11 12 8 4 2 6 4 7 7 13 11 20 22 26 26 20 20 19 17 15 13 16 21 26 31 31 32 28 23 19 13 11 14 15 18 19 25 26 30 30
3 4 13 15 12 3 6 3 9 17 11 18 7 27 31 22 12 14 4 13 16 23 25 27 24 21 18 16 14 14 16 20 25 29 31 28 26 20 13 11 14 15 18 19 20 26 23 38 41
11 2 6 7 21 4 2 5 6 15 39 51 52 43 36 31 24 12 3 6 19 20 21 22 24 20 16 14 12 11 15 21 25 27 28 26 20 14 12 14 15 15 17 20 22 21 24 41 45
7 7 12 1 6 6 5 6 13 33 52 48 48 42 38 32 26 28 17 7 8 15 18 20 22 19 16 12 5 8 14 19 23 25 25 20 13 12 12 12 11 11 15 18 20 27 31 40 39
12 9 11 10 9 5 9 4 18 39 58 45 51 48 45 46 47 35 24 19 17 17 17 19 17 16 10 5 2 7 13 20 23 24 21 16 11 10 11 15 9 9 14 15 20 21 27 33 36
2 9 12 7 6 7 7 15 15 29 52 46 48 52 52 44 36 31 28 29 25 20 13 9 9 10 10 6 3 11 17 22 23 22 17 11 11 11 13 13 12 12 12 13 18 24 24 28 38
4 4 6 6 6 8 13 15 15 31 31 42 41 51 48 38 38 37 32 29 27 20 14 14 14 13 10 7 6 8 12 15 18 20 16 9 9 11 14 12 11 12 13 16 17 19 18 29 35
5 4 3 7 3 4 18 6 9 16 36 41 47 45 46 42 41 37 35 34 26 20 15 13 13 11 11 8 6 7 10 15 19 19 15 8 8 11 12 9 7 10 9 6 10 11 15 24 27
7 6 6 4 4 6 6 6 6 13 20 32 34 42 44 41 43 41 39 40 34 26 20 19 19 16 13 12 10 11 12 15 19 19 17 10 8 13 14 4 1 5 4 2 5 8 11 15 24
10 4 12 6 3 5 5 8 8 14 13 18 26 33 32 32 35 37 38 34 31 29 28 23 20 19 16 13 13 12 14 13 12 16 18 15 12 14 17 17 12 7 8 7 7 8 8 9 15
12 9 7 4 6 3 10 10 5 1 4 9 22 30 27 22 25 26 26 23 23 20 19 20 18 20 17 16 17 18 18 17 13 12 14 14 13 15 17 18 19 14 11 12 11 9 5 10 10
6 9 3 4 4 9 10 7 2 9 14 19 21 27 26 25 25 23 24 22 22 20 17 16 16 18 18 17 17 22 22 20 20 19 14 12 12 11 13 17 17 20 18 18 14 12 7 10 13
11 8 10 13 9 7 5 9 7 12 30 33 31 26 26 28 27 27 27 23 23 21 18 15 15 16 15 14 15 16 18 25 20 20 22 15 12 14 13 16 18 20 23 21 19 16 12 16 18
10 9 6 10 6 6 7 6 2 14 18 26 27 27 28 28 27 28 25 26 26 24 23 20 17 16 13 14 12 13 15 15 16 14 12 15 15 17 19 19 21 20 20 25 24 22 21 20 21
5 9 5 5 6 7 6 7 7 19 19 15 18 24 26 25 26 28 29 29 30 30 28 24 24 23 21 17 16 16 16 16 15 12 13 15 16 16 15 15 17 21 21 22 25 24 26 27 24
4 5 4 6 8 8 7 6 3 17 21 19 22 23 24 25 25 27 29 30 30 31 33 33 33 33 32 31 27 22 21 20 21 22 23 19 16 19 18 20 19 20 21 21 24 23 26 27 27
2 6 8 8 8 2 3 4 9 18 29 34 28 26 24 23 23 25 26 27 29 32 35 36 36 37 39 38 36 35 33 32 30 30 29 29 29 24 23 25 25 23 28 27 25 24 24 24 29
Wind_Direction_500mb
237 283 337 67 57 76 251 266 176 76 40 37 59 74 113 65 44 155 150 216 204 205 187 177 166 163 173 192 208 211 241 282 301 308 310 308 306 307 306 304 302 299 297 296 293 290 287 284 280
234 246 3 322 100 126 265 231 71 68 99 56 64 49 79 101 72 129 148 196 208 203 188 180 170 176 193 218 215 228 262 278 292 302 307 308 309 309 306 302 300 300 299 297 297 296 294 293 288
205 211 310 113 189 184 217 33 131 94 89 16 67 72 69 70 82 142 136 183 200 191 182 186 164 173 187 214 260 281 273 285 298 308 311 313 314 311 310 310 309 308 306 306 303 300 296 288 282
155 154 253 107 241 270 135 116 88 88 58 36 62 77 87 65 149 126 147 181 203 199 183 166 167 183 209 237 260 263 272 290 303 310 316 318 318 316 317 315 314 314 314 310 306 301 296 293 288
105 278 300 245 258 268 145 98 65 71 157 168 79 140 81 96 114 126 151 190 209 197 204 182 187 207 211 228 241 256 278 297 308 313 315 316 318 317 316 315 316 316 313 309 306 303 301 298 296
347 242 65 233 256 287 70 105 86 23 56 132 91 79 97 120 131 136 162 197 225 227 229 196 209 207 228 234 253 276 291 304 312 316 319 320 319 318 318 317 320 317 314 310 311 314 312 308 303
221 97 228 265 272 221 119 100 110 354 78 82 76 79 127 154 151 136 170 197 231 245 233 208 215 221 240 250 271 285 301 312 318 320 323 325 322 322 321 324 324 322 323 326 328 327 323 323 333
272 82 276 236 238 5 131 91 123 100 48 81 28 121 171 179 157 147 165 205 235 244 220 216 220 230 245 258 275 287 308 314 320 325 329 327 326 326 328 331 335 335 344 350 342 337 336 343 339
359 18 260 272 187 161 155 109 120 120 93 83 95 126 144 159 161 170 178 201 226 252 256 244 222 238 243 262 273 285 308 317 323 325 329 331 331 330 334 337 340 343 355 359 352 355 345 360 10
175 121 256 21 354 33 75 87 136 107 106 212 191 187 174 179 185 205 200 208 224 235 243 256 254 252 251 259 268 291 306 317 320 329 334 335 334 336 338 345 347 354 2 8 359 3 11 2 358
204 189 261 23 41 28 30 44 8 34 181 92 30 218 198 200 225 210 223 231 245 258 244 251 254 259 262 274 277 293 312 325 329 332 339 338 337 337 339 349 357 355 9 7 15 6 3 357 357
272 282 278 292 9 22 34 339 335 266 251 335 347 320 187 234 255 285 279 245 243 255 266 263 256 249 246 265 269 292 321 332 332 335 339 340 337 336 340 348 359 10 18 23 18 16 11 6 359
232 273 294 253 319 345 301 284 269 274 281 283 286 266 254 253 270 294 288 256 241 248 263 268 260 250 250 251 270 298 320 330 329 335 338 340 338 337 344 352 4 20 16 22 19 11 23 18 17
221 221 258 270 249 224 251 246 333 17 93 63 34 243 94 82 89 120 202 243 247 245 256 263 262 252 247 254 265 288 316 326 331 336 338 340 343 345 355 13 25 21 15 33 33 33 28 22 16
143 335 274 254 216 84 261 295 254 268 238 26 353 74 92 90 110 82 75 209 221 253 255 258 257 252 242 245 263 294 317 328 333 337 339 344 348 356 18 48 37 27 50 41 56 54 40 44 34
130 267 250 332 137 170 138 77 349 94 84 63 69 69 60 51 47 39 57 155 210 222 243 244 248 251 245 240 256 302 323 330 336 337 344 346 356 21 51 53 44 51 56 52 57 50 37 31 23
171 181 220 174 169 119 82 137 21 84 86 60 54 54 43 28 27 15 360 267 165 188 217 227 236 250 244 236 265 319 328 335 343 347 346 353 16 49 66 48 56 64 60 77 59 38 38 32 30
183 202 172 161 201 97 139 265 54 57 74 58 47 41 37 33 28 27 46 63 105 148 182 201 222 241 226 224 296 328 339 344 355 354 354 7 40 53 42 41 57 87 76 61 66 44 31 27 23
272 183 120 140 168 128 198 69 52 60 60 54 46 42 41 48 50 54 68 84 104 119 158 189 201 163 159 148 47 3 356 353 354 4 6 25 47 32 27 50 58 73 50 60 66 39 27 30 23
324 112 97 77 146 99 81 86 72 64 70 64 54 47 46 51 59 63 70 83 89 100 114 128 136 132 119 103 41 20 8 1 8 11 13 32 38 35 16 49 54 64 56 72 59 34 24 24 22
263 141 130 131 202 109 117 145 126 76 77 66 57 63 61 57 63 65 69 74 83 90 98 108 104 99 89 64 28 10 4 3 1 360 10 30 36 43 21 33 49 41 48 70 40 12 14 31 27
197 228 191 123 73 198 161 232 215 119 78 63 54 56 59 66 66 66 66 67 67 63 77 82 85 79 66 47 23 8 6 18 19 20 16 30 24 20 20 347 338 40 25 24 353 335 353 31 35
239 280 189 167 184 56 310 83 310 143 61 52 52 53 59 70 74 73 79 81 83 83 77 75 81 80 65 49 34 15 21 42 38 44 33 33 20 11 10 18 12 349 355 333 286 313 325 6 22
144 94 49 123 109 24 232 141 211 37 68 91 69 58 56 66 77 78 82 87 88 87 83 83 73 68 58 45 32 30 28 31 28 38 36 41 33 13 359 360 359 351 336 334 319 298 265 332 342
110 122 51 12 7 221 333 114 43 103 86 102 90 69 61 58 65 72 76 74 79 81 80 75 69 68 59 48 41 45 38 36 30 21 17 22 13 7 350 343 343 344 334 313 314 304 238 296 295
168 182 159 182 189 207 329 208 147 120 107 100 91 86 77 68 65 65 66 65 66 62 61 54 53 52 43 42 38 38 52 43 29 15 17 11 341 334 324 315 327 332 331 325 312 303 277 273 278
200 184 168 103 33 79 156 77 54 121 104 98 91 85 75 71 67 64 65 64 60 55 51 46 45 41 34 32 29 20 20 40 50 42 19 18 11 351 347 337 328 310 315 319 310 298 294 285 282
136 156 95 5 127 226 232 177 180 170 142 112 100 96 88 80 73 69 67 65 64 62 58 55 50 42 36 28 21 15 8 1 14 11 1 351 344 336 327 330 324 318 313 313 313 310 288 290 291
144 164 186 133 149 172 161 230 288 167 147 133 113 103 96 87 78 73 71 69 67 67 63 60 57 55 49 44 39 30 25 17 5 351 343 334 331 319 317 315 303 308 311 305 298 304 304 300 293
354 180 154 138 221 229 150 215 99 115 129 129 126 118 108 97 88 79 74 71 68 64 60 58 56 54 50 47 45 43 38 32 26 19 12 2 354 335 315 309 305 298 299 299 295 288 279 289 293
Wind_Speed_850mb
7 6 3 2 6 8 7 11 5 7 7 7 14 16 18 11 6 8 35 21 18 18 23 26 25 21 15 12 12 9 8 7 10 12 14 15 18 21 25 28 31 33 35 36 38 39 42 43 42
7 6 3 4 5 2 9 8 8 5 6 11 12 14 11 7 15 21 25 24 15 14 28 27 25 19 16 16 12 6 8 9 12 14 17 19 22 26 29 31 32 34 35 37 40 42 44 45 45
6 5 3 6 5 8 6 7 10 8 15 7 5 13 9 6 16 14 20 30 23 18 24 24 24 22 17 11 6 5 8 11 14 17 20 24 27 29 32 34 36 37 39 41 43 44 45 48 50
7 5 7 5 12 12 7 5 8 7 6 6 7 13 16 9 7 9 37 30 23 16 19 27 24 20 9 7 8 7 9 12 15 18 24 27 30 33 36 39 42 44 45 46 47 46 47 49 51
6 4 1 4 9 10 4 12 11 4 11 6 3 7 11 11 10 18 37 30 25 21 21 24 23 15 8 9 8 9 10 13 17 21 24 27 30 34 38 42 45 46 46 44 44 44 45 47 49
3 4 3 7 12 6 5 18 6 4 4 12 3 6 7 12 8 21 27 24 21 17 21 26 20 13 10 9 8 9 11 14 18 22 24 27 31 36 40 44 44 42 41 42 41 38 38 40 41
5 4 7 2 8 8 5 13 8 3 6 4 4 8 12 15 9 18 25 17 18 17 14 18 17 12 11 9 9 10 13 17 20 23 25 29 34 38 41 41 39 41 38 30 29 29 29 29 29
4 4 6 7 3 4 5 6 5 3 2 4 2 6 9 21 18 19 23 17 19 18 11 12 11 13 13 10 11 11 14 19 22 23 28 32 36 40 40 39 39 35 26 23 22 22 22 28 29
2 5 6 7 7 4 13 6 3 3 2 4 4 3 9 22 20 21 21 22 18 18 18 14 12 14 13 9 11 11 15 19 23 24 28 33 38 37 34 35 33 27 19 22 25 29 30 30 30
5 3 7 7 11 7 5 14 6 4 2 4 6 9 11 15 13 15 20 20 23 22 21 19 14 16 12 10 12 11 14 19 23 26 30 35 36 34 33 31 32 19 19 22 25 25 32 27 30
12 9 4 8 15 16 8 11 7 2 2 3 5 16 16 12 10 17 12 14 13 14 19 23 20 19 14 14 12 13 15 20 24 29 34 37 34 33 29 26 24 19 19 18 26 31 32 30 31
6 11 21 11 8 10 7 15 11 7 10 13 9 5 11 8 9 9 11 14 17 21 15 20 23 20 17 15 14 13 16 21 25 32 36 35 34 30 25 24 20 17 15 20 27 24 27 28 26
13 20 21 8 6 6 7 11 11 29 29 24 16 9 7 9 9 12 8 4 17 26 24 22 20 21 20 14 15 14 17 20 26 31 34 33 30 27 23 19 15 13 16 14 23 23 27 26 26
14 34 40 16 7 1 2 3 9 11 12 8 4 2 6 4 7 7 13 11 20 22 26 26 20 20 19 17 15 13 16 21 26 31 31 32 28 23 19 13 11 14 15 18 19 25 26 30 30
3 4 13 15 12 3 6 3 9 17 11 18 7 27 31 22 12 14 4 13 16 23 25 27 24 21 18 16 14 14 16 20 25 29 31 28 26 20 13 11 14 15 18 19 20 26 23 38 41
11 2 6 7 21 4 2 5 6 15 39 51 52 43 36 31 24 12 3 6 19 20 21 22 24 20 16 14 12 11 15 21 25 27 28 26 20 14 12 14 15 15 17 20 22 21 24 41 45
7 7 12 1 6 6 5 6 13 33 52 48 48 42 38 32 26 28 17 7 8 15 18 20 22 19 16 12 5 8 14 19 23 25 25 20 13 12 12 12 11 11 15 18 20 27 31 40 39
12 9 11 10 9 5 9 4 18 39 58 45 51 48 45 46 47 35 24 19 17 17 17 19 17 16 10 5 2 7 13 20 23 24 21 16 11 10 11 15 9 9 14 15 20 21 27 33 36
2 9 12 7 6 7 7 15 15 29 52 46 48 52 52 44 36 31 28 29 25 20 13 9 9 10 10 6 3 11 17 22 23 22 17 11 11 11 13 13 12 12 12 13 18 24 24 28 38
4 4 6 6 6 8 13 15 15 31 31 42 41 51 48 38 38 37 32 29 27 20 14 14 14 13 10 7 6 8 12 15 18 20 16 9 9 11 14 12 11 12 13 16 17 19 18 29 35
5 4 3 7 3 4 18 6 9 16 36 41 47 45 46 42 41 37 35 34 26 20 15 13 13 11 11 8 6 7 10 15 19 19 15 8 8 11 12 9 7 10 9 6 10 11 15 24 27
7 6 6 4 4 6 6 6 6 13 20 32 34 42 44 41 43 41 39 40 34 26 20 19 19 16 13 12 10 11 12 15 19 19 17 10 8 13 14 4 1 5 4 2 5 8 11 15 24
10 4 12 6 3 5 5 8 8 14 13 18 26 33 32 32 35 37 38 34 31 29 28 23 20 19 16 13 13 12 14 13 12 16 18 15 12 14 17 17 12 7 8 7 7 8 8 9 15
12 9 7 4 6 3 10 10 5 1 4 9 22 30 27 22 25 26 26 23 23 20 19 20 18 20 17 16 17 18 18 17 13 12 14 14 13 15 17 18 19 14 11 12 11 9 5 10 10
6 9 3 4 4 9 10 7 2 9 14 19 21 27 26 25 25 23 24 22 22 20 17 16 16 18 18 17 17 22 22 20 20 19 14 12 12 11 13 17 17 20 18 18 14 12 7 10 13
11 8 10 13 9 7 5 9 7 12 30 33 31 26 26 28 27 27 27 23 23 21 18 15 15 16 15 14 15 16 18 25 20 20 22 15 12 14 13 16 18 20 23 21 19 16 12 16 18
10 9 6 10 6 6 7 6 2 14 18 26 27 27 28 28 27 28 25 26 26 24 23 20 17 16 13 14 12 13 15 15 16 14 12 15 15 17 19 19 21 20 20 25 24 22 21 20 21
5 9 5 5 6 7 6 7 7 19 19 15 18 24 26 25 26 28 29 29 30 30 28 24 24 23 21 17 16 16 16 16 15 12 13 15 16 16 15 15 17 21 21 22 25 24 26 27 24
4 5 4 6 8 8 7 6 3 17 21 19 22 23 24 25 25 27 29 30 30 31 33 33 33 33 32 31 27 22 21 20 21 22 23 19 16 19 18 20 19 20 21 21 24 23 26 27 27
2 6 8 8 8 2 3 4 9 18 29 34 28 26 24 23 23 25 26 27 29 32 35 36 36 37 39 38 36 35 33 32 30 30 29 29 29 24 23 25 25 23 28 27 25 24 24 24 29
Wind_Direction_850mb
237 283 337 67 57 76 251 266 176 76 40 37 59 74 113 65 44 155 150 216 204 205 187 177 166 163 173 192 208 211 241 282 301 308 310 308 306 307 306 304 302 299 297 296 293 290 287 284 280
234 246 3 322 100 126 265 231 71 68 99 56 64 49 79 101 72 129 148 196 208 203 188 180 170 176 193 218 215 228 262 278 292 302 307 308 309 309 306 302 300 300 299 297 297 296 294 293 288
205 211 310 113 189 184 217 33 131 94 89 16 67 72 69 70 82 142 136 183 200 191 182 186 164 173 187 214 260 281 273 285 298 308 311 313 314 311 310 310 309 308 306 306 303 300 296 288 282
155 154 253 107 241 270 135 116 88 88 58 36 62 77 87 65 149 126 147 181 203 199 183 166 167 183 209 237 260 263 272 290 303 310 316 318 318 316 317 315 314 314 314 310 306 301 296 293 288
105 278 300 245 258 268 145 98 65 71 157 168 79 140 81 96 114 126 151 190 209 197 204 182 187 207 211 228 241 256 278 297 308 313 315 316 318 317 316 315 316 316 313 309 306 303 301 298 296
347 242 65 233 256 287 70 105 86 23 56 132 91 79 97 120 131 136 162 197 225 227 229 196 209 207 228 234 253 276 291 304 312 316 319 320 319 318 318 317 320 317 314 310 311 314 312 308 303
221 97 228 265 272 221 119 100 110 354 78 82 76 79 127 154 151 136 170 197 231 245 233 208 215 221 240 250 271 285 301 312 318 320 323 325 322 322 321 324 324 322 323 326 328 327 323 323 333
272 82 276 236 238 5 131 91 123 100 48 81 28 121 171 179 157 147 165 205 235 244 220 216 220 230 245 258 275 287 308 314 320 325 329 327 326 326 328 331 335 335 344 350 342 337 336 343 339
359 18 260 272 187 161 155 109 120 120 93 83 95 126 144 159 161 170 178 201 226 252 256 244 222 238 243 262 273 285 308 317 323 325 329 331 331 330 334 337 340 343 355 359 352 355 345 360 10
175 121 256 21 354 33 75 87 136 107 106 212 191 187 174 179 185 205 200 208 224 235 243 256 254 252 251 259 268 291 306 317 320 329 334 335 334 336 338 345 347 354 2 8 359 3 11 2 358
204 189 261 23 41 28 30 44 8 34 181 92 30 218 198 200 225 210 223 231 245 258 244 251 254 259 262 274 277 293 312 325 329 332 339 338 337 337 339 349 357 355 9 7 15 6 3 357 357
272 282 278 292 9 22 34 339 335 266 251 335 347 320 187 234 255 285 279 245 243 255 266 263 256 249 246 265 269 292 321 332 332 335 339 340 337 336 340 348 359 10 18 23 18 16 11 6 359
232 273 294 253 319 345 301 284 269 274 281 283 286 266 254 253 270 294 288 256 241 248 263 268 260 250 250 251 270 298 320 330 329 335 338 340 338 337 344 352 4 20 16 22 19 11 23 18 17
221 221 258 270 249 224 251 246 333 17 93 63 34 243 94 82 89 120 202 243 247 245 256 263 262 252 247 254 265 288 316 326 331 336 338 340 343 345 355 13 25 21 15 33 33 33 28 22 16
143 335 274 254 216 84 261 295 254 268 238 26 353 74 92 90 110 82 75 209 221 253 255 258 257 252 242 245 263 294 317 328 333 337 339 344 348 356 18 48 37 27 50 41 56 54 40 44 34
130 267 250 332 137 170 138 77 349 94 84 63 69 69 60 51 47 39 57 155 210 222 243 244 248 251 245 240 256 302 323 330 336 337 344 346 356 21 51 53 44 51 56 52 57 50 37 31 23
171 181 220 174 169 119 82 137 21 84 86 60 54 54 43 28 27 15 360 267 165 188 217 227 236 250 244 236 265 319 328 335 343 347 346 353 16 49 66 48 56 64 60 77 59 38 38 32 30
183 202 172 161 201 97 139 265 54 57 74 58 47 41 37 33 28 27 46 63 105 148 182 201 222 241 226 224 296 328 339 344 355 354 354 7 40 53 42 41 57 87 76 61 66 44 31 27 23
272 183 120 140 168 128 198 69 52 60 60 54 46 42 41 48 50 54 68 84 104 119 158 189 201 163 159 148 47 3 356 353 354 4 6 25 47 32 27 50 58 73 50 60 66 39 27 30 23
324 112 97 77 146 99 81 86 72 64 70 64 54 47 46 51 59 63 70 83 89 100 114 128 136 132 119 103 41 20 8 1 8 11 13 32 38 35 16 49 54 64 56 72 59 34 24 24 22
263 141 130 131 202 109 117 145 126 76 77 66 57 63 61 57 63 65 69 74 83 90 98 108 104 99 89 64 28 10 4 3 1 360 10 30 36 43 21 33 49 41 48 70 40 12 14 31 27
197 228 191 123 73 198 161 232 215 119 78 63 54 56 59 66 66 66 66 67 67 63 77 82 85 79 66 47 23 8 6 18 19 20 16 30 24 20 20 347 338 40 25 24 353 335 353 31 35
239 280 189 167 184 56 310 83 310 143 61 52 52 53 59 70 74 73 79 81 83 83 77 75 81 80 65 49 34 15 21 42 38 44 33 33 20 11 10 18 12 349 355 333 286 313 325 6 22
144 94 49 123 109 24 232 141 211 37 68 91 69 58 56 66 77 78 82 87 88 87 83 83 73 68 58 45 32 30 28 31 28 38 36 41 33 13 359 360 359 351 336 334 319 298 265 332 342
110 122 51 12 7 221 333 114 43 103 86 102 90 69 61 58 65 72 76 74 79 81 80 75 69 68 59 48 41 45 38 36 30 21 17 22 13 7 350 343 343 344 334 313 314 304 238 296 295
168 182 159 182 189 207 329 208 147 120 107 100 91 86 77 68 65 65 66 65 66 62 61 54 53 52 43 42 38 38 52 43 29 15 17 11 341 334 324 315 327 332 331 325 312 303 277 273 278
200 184 168 103 33 79 156 77 54 121 104 98 91 85 75 71 67 64 65 64 60 55 51 46 45 41 34 32 29 20 20 40 50 42 19 18 11 351 347 337 328 310 315 319 310 298 294 285 282
136 156 95 5 127 226 232 177 180 170 142 112 100 96 88 80 73 69 67 65 64 62 58 55 50 42 36 28 21 15 8 1 14 11 1 351 344 336 327 330 324 318 313 313 313 310 288 290 291
144 164 186 133 149 172 161 230 288 167 147 133 113 103 96 87 78 73 71 69 67 67 63 60 57 55 49 44 39 30 25 17 5 351 343 334 331 319 317 315 303 308 311 305 298 304 304 300 293
354 180 154 138 221 229 150 215 99 115 129 129 126 118 108 97 88 79 74 71 68 64 60 58 56 54 50 47 45 43 38 32 26 19 12 2 354 335 315 309 305 298 299 299 295 288 279 289 293